Hourly Data Report for July 27, 2021

CAMBRIDGE BAY A
NUNAVUT
Current Station Operator: NAVCAN

69°06'29.000" N
105°08'14.000" W
31.10 m
2400601
71925
YCB

Download Data

Hourly Data (July 2021)
Hourly Data Report for July 27, 2021
TIME
LST
Temp Definition
°C
Dew Point Definition
°C
Rel Hum Definition
%
Precip. Amount Definition
mm

Wind Dir Definition
10's deg

Wind Spd Definition
km/h
Visibility Definition
km
Stn Press Definition
kPa
Hmdx Definition


Wind Chill Definition


Weather Definition


00:00 4.9 2.7 85   33 21 24.1 99.80     Rain
01:00 4.1 0.9 79   32 21 24.1 99.81     LegendNANA
02:00 3.4 0.9 83   31 23 24.1 99.81     Mostly Cloudy
03:00 3.7 0.8 81   30 28 24.1 99.80     LegendNANA
04:00 4.0 0.9 81   31 34 24.1 99.82     LegendNANA
05:00 4.1 1.4 82   31 34 24.1 99.82     Cloudy
06:00 4.1 1.8 85   31 34 24.1 99.81     Rain
07:00 4.5 2.0 83   31 36 24.1 99.81     LegendNANA
08:00 5.2 2.3 82   31 28 24.1 99.85     Cloudy
09:00 5.5 2.3 80   31 36 24.1 99.84     LegendNANA
10:00 6.3 2.6 77   31 35 24.1 99.89     LegendNANA
11:00 6.5 2.5 75   31 35 24.1 99.92     Mostly Cloudy
12:00 6.6 2.5 75   31 32 24.1 99.97     LegendNANA
13:00 7.2 3.0 74   32 33 24.1 100.01     LegendNANA
14:00 7.5 3.1 74   30 36 24.1 100.05     Mostly Cloudy
15:00 7.8 3.5 74   32 32 24.1 100.12     LegendNANA
16:00 6.9 4.0 82   32 30 24.1 100.16     Rain Showers
17:00 6.8 4.0 82   32 30 24.1 100.20     Rain Showers
18:00 7.1 3.7 79   32 30 24.1 100.23     LegendNANA
19:00 7.1 3.8 79   32 29 24.1 100.26     LegendNANA
20:00 6.8 3.5 80   33 20 24.1 100.30     Mostly Cloudy
21:00 6.3 3.4 82   33 22 24.1 100.35     LegendNANA
22:00 6.0 3.4 83   33 22 24.1 100.40     LegendNANA
23:00 5.7 3.3 85   32 21 24.1 100.44     Cloudy

Notes on Data Quality.

Legend

  • E = Estimated
  • M = Missing
  • NA = Not Available*
  • [empty] = Indicates an unobserved value
Date modified: